Preview of NWS' New Version of Forecast
This preview is not operational and should not be used for support decisions.

Regional Weather Roundup (RWR)

Issued by National Weather Service (NWS)

                            
000
ASUS46 KPQR 251410
RWROR 

OREGON REGIONAL WEATHER ROUNDUP
NATIONAL WEATHER SERVICE PORTLAND OR
700 AM PDT SUN AUG 25 2019

NOTE: "FAIR" INDICATES FEW OR NO CLOUDS BELOW 12,000 FEET WITH
NO SIGNIFICANT WEATHER AND/OR OBSTRUCTIONS TO VISIBILITY.

ORZ001>013-251500-
NORTHWEST OREGON

  
CITY           SKY/WX    TMP DP  RH WIND       PRES   REMARKS
ASTORIA        CLEAR     53  51  93 E5        30.15R                  
TILLAMOOK      FOG       50  48  93 CALM      30.18R VSB 1/4          
NEWPORT        CLEAR     50  48  93 CALM      30.17R FOG              
FLORENCE       FAIR      50  48  93 CALM      30.13R                  
PORTLAND       PTCLDY    59  51  75 CALM      30.14R                  
VANCOUVER WA   CLEAR     54  49  83 CALM      30.14R                  
SCAPPOOSE      CLEAR     52  50  93 CALM      30.13R                  
HILLSBORO      CLEAR     54  50  86 NW3       30.14R                  
AURORA         PTCLDY    58  51  78 N8        30.15R                  
MCMINNVILLE    CLEAR     52  50  93 W3        30.14R                  
SALEM          CLEAR     56  51  84 N5        30.13R                  
CORVALLIS      CLEAR     56  53  90 W5        30.14R                  
EUGENE         PTCLDY    55  52  89 CALM      30.13R                  
CRESWELL       MOCLDY    59  55  88 CALM      30.11R                  
$$

ORZ021-028-251500-
SOUTHWEST OREGON

  
CITY           SKY/WX    TMP DP  RH WIND       PRES   REMARKS
NORTH BEND     CLOUDY    56  55  97 CALM      30.13S                  
BROOKINGS      PTCLDY    51  51 100 CALM      30.04R                  
ROSEBURG       PTCLDY    63  56  78 N3        30.11R                  
SEXTON SUMMIT  PTCLDY    55  50  83 CALM      30.15R                  
GRANTS PASS    FAIR      57  52  82 CALM      30.12R                  
MEDFORD        CLEAR     57  48  72 CALM      30.08R                  
$$

ORZ014>016-041-251500-
COLUMBIA GORGE

  
CITY           SKY/WX    TMP DP  RH WIND       PRES   REMARKS
TROUTDALE      CLEAR     58  52  80 CALM      30.14R                  
HOOD RIVER     CLEAR     61  52  72 NW17G24   30.07R                  
THE DALLES     CLEAR     64  51  62 W20       30.02R                  
$$

ORZ029>031-041-044-049-050-061>064-502-503-505>511-251500-
EASTERN OREGON

  
CITY           SKY/WX    TMP DP  RH WIND       PRES   REMARKS
MADRAS         CLEAR     46  45  93 SE6       30.12R                  
REDMOND        CLEAR     48  42  80 CALM      30.11R                  
BEND           CLEAR     50  45  81 SW3       30.12R                  
PRINEVILLE     CLEAR     46  43  87 CALM      30.11R                  
KLAMATH FALLS  CLEAR     44  41  89 SE3       30.15R                  
LAKEVIEW       CLEAR     45  38  76 CALM      30.18R                  
HERMISTON      CLEAR     64  53  67 SW9       29.99R                  
PENDLETON      CLEAR     63  51  65 SW7       30.02R                  
JOHN DAY       CLEAR     56  46  69 CALM      30.11R                  
MEACHAM        PTCLDY    55  47  74 CALM      30.09R                  
LA GRANDE      CLEAR     52  44  74 S5        30.07S                  
BAKER CITY     CLEAR     55  44  66 SW7       30.08R                  
BURNS          PTCLDY    48  35  60 W3        30.12R                  
ROME             N/A     60  31  33 S8        30.08R                  
ONTARIO        CLEAR     66  43  43 CALM      30.03R                  
$$